Wind_Speed
11 11 11 12 12 13 14 14 14 15 14 13 13 13 13 13 13 13 13 13 13 13 13 13 13 13 13 13 13 12 12 12 12 12 12 13 13 13 12 12 12 13 13
11 12 12 12 12 13 14 14 14 15 15 14 14 14 14 14 15 15 14 14 14 14 14 14 15 15 15 14 14 14 14 14 14 13 13 14 14 13 13 12 12 13 13
13 13 13 13 14 14 14 15 16 16 15 15 15 15 16 15 16 16 16 16 15 15 15 15 16 16 15 15 14 14 14 14 14 15 15 15 15 14 14 13 13 13 13
13 13 14 14 14 15 15 15 15 15 16 15 16 16 16 17 17 17 17 17 17 17 17 18 17 17 16 16 15 15 15 15 16 16 16 16 16 16 16 15 14 14 14
14 14 14 14 15 15 16 16 15 14 15 15 16 17 17 17 18 19 19 19 19 19 19 19 19 18 17 17 17 17 17 17 17 17 17 17 17 17 16 16 16 15 15
15 15 14 15 15 16 15 15 15 15 16 16 17 18 18 19 19 19 20 20 20 20 20 20 20 20 20 19 19 18 19 19 19 19 18 18 18 18 18 17 17 17 16
16 16 15 16 16 15 15 15 16 16 16 17 18 18 18 19 20 20 20 21 21 21 22 21 21 21 21 21 20 20 20 19 19 20 19 19 19 19 20 20 19 18 18
17 17 17 17 16 16 16 16 17 17 16 17 18 19 20 20 20 21 21 22 23 23 23 23 22 22 23 23 21 21 22 21 21 21 21 21 21 21 21 22 21 21 20
19 19 19 19 18 18 17 17 17 17 17 18 18 19 20 21 22 22 23 23 24 24 23 24 23 22 22 23 23 22 23 23 23 22 22 23 23 23 23 23 22 22 22
21 21 21 20 20 20 19 19 19 19 18 19 19 20 20 21 22 23 24 24 25 25 24 24 23 23 23 23 23 24 23 24 24 24 23 23 23 23 23 23 23 23 23
22 22 22 22 21 21 21 21 20 19 20 20 20 20 21 22 22 23 23 23 24 25 26 26 26 26 25 25 25 25 26 26 25 24 24 24 24 23 23 24 24 24 25
23 22 22 22 22 23 23 22 22 21 21 21 21 20 21 22 22 23 23 23 24 25 26 26 27 27 28 27 27 28 27 26 25 25 25 25 25 25 25 25 26 26 26
23 23 22 22 23 24 24 23 23 23 23 22 22 22 21 22 23 23 24 24 25 26 27 27 28 29 29 28 27 27 27 27 27 27 26 26 27 27 26 26 27 28 28
23 23 23 24 24 24 25 25 24 24 24 23 23 23 23 23 24 25 25 26 27 27 27 28 28 29 29 30 28 28 28 28 28 28 28 28 28 29 29 29 29 29 30
24 24 24 24 25 25 25 25 25 25 24 24 25 25 25 25 26 26 27 27 28 28 28 28 29 29 29 29 28 29 28 28 29 30 30 30 30 31 31 31 31 32 32
24 24 25 26 25 25 25 25 25 25 25 26 26 27 27 27 28 28 28 28 28 28 28 28 29 29 29 29 29 29 28 29 29 30 31 32 32 32 32 32 32 33 33
24 24 25 26 25 24 25 25 26 26 26 26 26 27 27 28 28 29 29 30 29 29 30 30 29 29 30 30 30 30 30 30 30 31 31 32 32 33 33 33 32 32 32
23 24 23 24 25 24 25 25 26 26 26 27 28 28 28 28 29 29 29 29 30 30 30 30 30 30 30 30 30 31 31 31 32 32 32 32 33 33 33 33 33 33 33
23 23 23 24 23 24 24 26 26 26 26 26 27 28 27 28 29 29 29 29 29 30 31 31 31 30 30 29 29 30 31 31 32 33 33 32 33 33 34 34 34 34 33
23 23 23 23 24 25 24 24 24 25 25 26 26 27 27 29 29 30 30 29 29 30 30 30 30 29 29 30 30 30 31 31 32 32 33 33 33 33 33 33 34 34 33
24 23 24 24 24 25 24 24 25 26 25 26 27 28 29 30 30 30 30 30 29 29 28 28 29 29 29 30 30 29 30 30 31 32 32 32 33 33 33 33 32 32 33
24 25 25 25 25 25 25 25 26 27 27 27 29 30 30 31 31 30 30 29 28 28 27 27 27 28 29 29 30 30 30 30 31 31 32 32 33 33 33 33 33 32 32
24 24 24 25 25 25 26 27 28 28 28 29 30 30 30 30 30 30 29 28 28 28 28 28 28 29 29 30 30 30 30 31 32 31 32 32 32 31 32 33 33 32 32
24 25 25 26 26 27 28 29 29 30 30 30 30 30 29 28 29 29 28 28 29 29 28 29 29 30 31 31 31 31 31 31 31 31 32 31 31 31 32 32 33 33 33
25 26 26 27 27 28 29 30 30 31 30 29 29 28 28 28 28 29 28 28 28 28 29 30 30 31 31 31 31 31 31 32 31 31 32 31 31 31 31 31 31 32 33
27 27 28 28 28 29 30 30 30 30 29 29 29 29 29 29 29 29 29 29 29 29 30 30 31 31 31 31 31 31 32 31 31 31 31 32 32 32 32 32 32 32 32
Wind_Direction
287 282 281 281 280 279 276 272 270 268 269 266 264 264 259 257 258 258 260 264 266 261 260 261 265 263 262 265 265 263 267 271 270 267 268 267 268 267 267 268 267 266 267
287 283 283 284 283 281 280 275 273 271 270 267 263 260 260 259 258 260 262 262 262 263 262 260 261 265 267 266 266 264 265 268 268 268 269 270 269 268 268 268 267 267 268
287 286 283 283 284 283 282 277 272 270 269 266 263 262 262 262 263 262 261 260 260 261 262 264 264 266 268 265 265 265 266 268 267 267 269 271 269 268 268 269 266 265 269
287 287 284 283 282 282 283 280 275 270 267 265 264 263 264 265 264 263 263 262 261 261 262 263 265 265 267 266 265 265 266 267 267 268 269 270 269 271 270 267 265 264 267
290 290 290 288 285 284 283 282 278 275 271 269 266 262 264 266 266 265 264 264 264 262 263 263 263 264 264 265 264 263 265 267 267 268 269 268 268 270 269 267 265 265 267
288 289 290 290 289 287 286 282 277 277 275 272 269 265 265 266 267 269 266 263 263 264 265 265 263 264 263 263 264 263 264 266 266 266 267 267 267 266 267 267 265 265 267
285 287 289 289 288 286 287 285 282 280 278 276 274 272 270 269 269 269 267 264 263 265 266 265 264 265 263 262 263 263 263 264 265 264 264 265 266 266 267 267 266 265 268
283 283 284 285 284 284 286 285 285 282 280 279 278 275 274 272 271 269 269 267 265 265 266 266 264 264 264 263 264 263 262 263 263 263 263 264 265 267 266 265 265 265 266
280 279 279 280 281 280 280 284 286 285 283 282 281 280 278 276 272 270 269 268 267 268 267 266 266 267 266 264 264 264 263 262 263 262 262 263 264 265 264 264 263 264 266
279 278 275 278 279 279 278 280 284 286 285 284 283 281 278 278 276 272 270 269 269 268 268 267 266 266 266 266 266 265 265 263 263 261 261 263 265 265 264 263 263 264 266
278 277 275 276 278 278 278 280 282 284 285 286 286 283 281 279 277 276 273 272 270 269 268 267 266 266 268 268 268 267 266 266 263 262 262 263 264 265 263 263 264 265 267
277 274 273 275 276 277 278 279 280 282 284 285 284 283 283 281 279 279 277 274 273 271 269 267 268 268 269 269 268 268 267 267 264 262 261 261 263 264 264 264 265 265 267
278 275 275 276 278 278 278 279 279 279 280 282 282 281 281 281 279 279 278 276 274 273 271 269 268 268 269 270 269 269 269 267 265 264 261 261 262 263 264 265 265 265 265
278 277 277 277 278 277 278 279 278 277 278 279 280 280 280 280 280 279 278 277 275 274 272 271 269 268 269 269 269 269 270 268 266 265 263 262 263 263 263 263 264 265 265
279 278 278 279 278 278 279 278 277 276 276 278 279 279 279 279 280 280 280 279 277 275 274 272 272 271 271 270 269 269 270 268 267 266 265 264 263 263 264 264 264 265 265
281 279 278 279 278 277 277 276 276 277 277 277 278 277 276 277 279 281 282 281 279 277 277 275 273 272 271 270 270 269 268 267 267 267 267 265 264 265 265 264 264 264 265
282 281 280 278 277 278 278 276 276 277 276 276 278 277 277 278 280 282 281 280 279 278 277 275 274 273 272 272 272 270 269 269 267 267 268 266 265 265 266 265 264 265 266
284 286 284 281 278 278 280 279 278 276 277 277 277 277 278 280 281 282 281 281 281 279 277 275 274 273 272 272 271 270 270 270 266 266 267 267 266 265 265 266 266 267 268
283 284 284 281 281 283 283 280 279 278 280 280 279 277 278 281 282 281 280 280 280 278 277 277 276 274 275 274 272 271 270 270 268 266 266 265 266 266 265 265 266 266 266
282 283 282 283 284 286 285 284 282 283 284 282 281 281 281 282 282 282 281 280 279 279 278 278 276 275 275 275 273 272 272 271 269 268 267 265 265 266 265 266 266 267 266
282 280 280 283 286 285 286 287 286 285 285 284 284 284 283 283 283 283 282 282 280 280 281 280 275 273 274 274 273 274 273 272 271 271 268 266 266 266 267 266 267 267 267
281 281 281 282 283 283 284 286 287 286 284 285 286 286 285 284 283 283 282 282 280 280 280 278 275 274 275 275 274 273 274 273 272 270 269 269 268 266 265 266 266 267 268
281 282 282 282 282 283 284 286 287 287 286 287 286 286 286 285 284 284 284 283 282 280 279 277 276 275 275 275 274 274 274 274 272 270 269 270 269 267 266 265 266 267 267
279 282 283 283 283 284 284 285 286 287 289 289 287 286 285 285 285 285 283 282 280 279 280 278 278 276 274 275 275 275 274 274 274 272 270 270 270 269 267 265 265 266 267
280 282 284 284 284 283 283 284 285 288 289 288 287 287 286 287 287 286 285 283 282 280 279 278 277 276 276 276 276 276 276 276 275 273 272 270 272 271 269 267 266 267 267
281 282 283 284 284 283 284 285 286 287 288 286 285 286 286 286 287 287 285 284 283 282 281 280 279 277 277 276 275 276 275 274 274 274 272 271 272 273 271 271 271 270 268
Height
5859 5859 5859 5860 5860 5859 5859 5859 5860 5860 5860 5860 5861 5861 5862 5862 5863 5864 5865 5866 5866 5867 5868 5869 5869 5870 5871 5872 5872 5873 5874 5874 5875 5876 5876 5877 5877 5878 5878 5879 5879 5880 5880
5857 5857 5857 5857 5857 5857 5857 5857 5856 5857 5857 5857 5858 5859 5859 5859 5860 5861 5862 5863 5863 5864 5865 5866 5866 5867 5868 5868 5869 5870 5871 5872 5872 5873 5873 5874 5875 5875 5875 5876 5876 5877 5877
5855 5855 5854 5854 5854 5854 5854 5854 5854 5854 5854 5854 5855 5855 5856 5856 5857 5858 5859 5860 5860 5861 5862 5862 5863 5864 5864 5865 5866 5867 5868 5868 5869 5869 5870 5871 5872 5872 5873 5873 5873 5873 5874
5852 5852 5852 5851 5851 5851 5851 5851 5850 5850 5850 5851 5851 5852 5853 5853 5854 5854 5855 5856 5857 5857 5858 5859 5860 5860 5861 5862 5863 5863 5864 5865 5866 5866 5866 5867 5868 5869 5869 5869 5869 5870 5871
5849 5849 5849 5848 5848 5847 5847 5847 5847 5847 5847 5847 5847 5848 5849 5849 5850 5850 5851 5852 5852 5853 5854 5855 5856 5856 5857 5858 5859 5860 5860 5861 5862 5862 5863 5863 5864 5864 5865 5865 5866 5866 5867
5846 5846 5845 5845 5845 5844 5844 5843 5843 5843 5843 5844 5844 5844 5845 5845 5845 5846 5846 5847 5848 5849 5850 5850 5851 5852 5853 5854 5855 5856 5856 5857 5857 5858 5859 5859 5859 5860 5861 5861 5862 5863 5863
5843 5843 5842 5842 5841 5841 5841 5840 5840 5840 5840 5840 5840 5840 5840 5841 5841 5841 5842 5842 5843 5844 5844 5845 5846 5847 5848 5849 5850 5851 5852 5852 5853 5853 5854 5854 5855 5855 5856 5857 5857 5858 5859
5839 5839 5839 5838 5838 5838 5837 5837 5836 5836 5836 5836 5836 5836 5836 5837 5837 5837 5837 5837 5838 5839 5839 5840 5841 5842 5843 5844 5845 5846 5846 5847 5848 5848 5849 5849 5850 5850 5851 5852 5852 5853 5854
5835 5835 5835 5835 5834 5834 5833 5833 5832 5832 5832 5831 5831 5831 5831 5832 5832 5832 5832 5832 5833 5833 5834 5835 5836 5836 5837 5838 5839 5840 5841 5842 5842 5843 5843 5844 5844 5845 5845 5846 5847 5848 5849
5831 5831 5831 5831 5830 5830 5829 5829 5828 5828 5827 5827 5827 5826 5826 5826 5826 5826 5827 5826 5827 5827 5828 5829 5830 5831 5831 5833 5833 5834 5835 5835 5836 5837 5837 5838 5838 5839 5839 5840 5841 5842 5843
5826 5826 5826 5826 5826 5825 5825 5824 5824 5823 5822 5822 5822 5821 5821 5821 5820 5820 5821 5821 5821 5821 5822 5822 5823 5824 5825 5826 5827 5827 5828 5829 5830 5830 5831 5832 5832 5833 5833 5834 5835 5837 5838
5821 5821 5821 5821 5821 5820 5820 5819 5819 5818 5817 5817 5816 5816 5816 5816 5815 5815 5814 5815 5815 5815 5816 5816 5817 5817 5818 5819 5820 5821 5821 5822 5823 5824 5824 5825 5826 5827 5827 5828 5829 5830 5831
5816 5816 5816 5816 5816 5815 5814 5814 5813 5813 5812 5811 5811 5810 5810 5810 5809 5809 5808 5808 5808 5808 5809 5809 5810 5810 5811 5812 5813 5813 5813 5814 5815 5816 5817 5818 5819 5820 5821 5822 5822 5823 5824
5810 5810 5810 5810 5809 5809 5808 5807 5807 5806 5806 5805 5805 5804 5804 5804 5803 5803 5802 5801 5801 5801 5801 5802 5802 5803 5804 5804 5805 5806 5806 5807 5808 5809 5810 5811 5811 5812 5813 5814 5815 5815 5816
5804 5804 5803 5803 5802 5802 5801 5800 5800 5800 5799 5799 5799 5798 5798 5797 5797 5796 5795 5795 5794 5794 5794 5794 5795 5795 5796 5796 5797 5798 5799 5799 5800 5801 5801 5802 5803 5804 5805 5806 5806 5807 5808
5798 5797 5797 5795 5794 5794 5794 5793 5793 5793 5793 5792 5792 5791 5791 5790 5790 5789 5788 5787 5787 5786 5786 5786 5787 5787 5787 5788 5789 5789 5790 5791 5791 5792 5793 5793 5794 5795 5796 5796 5797 5798 5799
5792 5791 5790 5789 5788 5787 5787 5787 5787 5786 5786 5785 5785 5784 5783 5783 5782 5781 5780 5780 5779 5779 5778 5778 5778 5779 5779 5779 5780 5781 5782 5782 5783 5783 5784 5784 5785 5786 5786 5787 5788 5789 5789
5785 5784 5783 5782 5781 5781 5780 5780 5780 5779 5779 5778 5778 5777 5776 5775 5775 5774 5773 5772 5771 5770 5770 5769 5770 5770 5770 5771 5771 5772 5773 5773 5774 5775 5775 5775 5776 5776 5777 5777 5778 5779 5780
5779 5778 5777 5776 5775 5775 5774 5774 5773 5772 5771 5771 5770 5769 5769 5768 5767 5766 5765 5764 5763 5762 5761 5761 5761 5761 5762 5762 5763 5763 5764 5764 5764 5765 5766 5766 5766 5767 5767 5768 5769 5770 5770
5773 5772 5771 5770 5770 5769 5768 5767 5766 5765 5764 5764 5763 5762 5761 5760 5759 5758 5757 5755 5754 5753 5752 5752 5752 5752 5753 5753 5754 5754 5755 5755 5755 5756 5756 5757 5757 5757 5758 5759 5760 5760 5761
5766 5765 5765 5764 5763 5762 5761 5761 5760 5758 5758 5757 5756 5754 5753 5752 5750 5749 5748 5747 5746 5745 5744 5744 5744 5744 5744 5744 5745 5745 5746 5745 5746 5746 5747 5747 5748 5748 5749 5749 5750 5750 5751
5759 5758 5758 5757 5756 5756 5755 5754 5753 5752 5751 5749 5748 5746 5745 5743 5742 5741 5740 5739 5738 5737 5736 5736 5736 5736 5736 5736 5736 5736 5737 5737 5738 5738 5737 5738 5738 5739 5740 5740 5740 5741 5741
5753 5752 5751 5750 5750 5749 5748 5747 5746 5744 5743 5742 5740 5738 5737 5735 5734 5733 5732 5731 5730 5729 5728 5728 5728 5728 5727 5727 5727 5727 5727 5727 5728 5728 5728 5728 5728 5728 5729 5730 5730 5731 5731
5746 5745 5744 5743 5742 5741 5741 5740 5738 5736 5735 5733 5731 5730 5729 5727 5726 5725 5724 5723 5721 5720 5720 5720 5720 5719 5718 5718 5718 5718 5718 5718 5718 5718 5718 5719 5719 5719 5720 5721 5721 5721 5721
5739 5738 5737 5735 5734 5734 5733 5732 5730 5729 5727 5725 5724 5722 5721 5720 5719 5717 5716 5715 5714 5712 5711 5711 5711 5710 5710 5709 5709 5709 5709 5708 5709 5709 5709 5710 5710 5710 5710 5711 5711 5711 5711
5731 5730 5729 5728 5727 5726 5724 5723 5722 5720 5719 5718 5716 5715 5713 5712 5711 5709 5708 5706 5705 5704 5703 5702 5702 5701 5701 5700 5699 5699 5699 5699 5700 5700 5700 5700 5700 5701 5701 5701 5701 5701 5701